Fairbanks, AK

2:45 AM AKST on February 22, 2017 (GMT -0900)
Fairbanks International

Weather History for PAFA - September, 2012

Change the Weather History Date:

Sunday, September 30, 2012

  Actual Average Record
Temperature  
Mean Temperature 31 °F 37 °F  
Max Temperature 36 °F 46 °F 71 °F (2003)
Min Temperature 26 °F 28 °F 3 °F (1992)
Degree Days  
Heating Degree Days 34 28  
Month to date heating degree days 576 606  
Since 1 July heating degree days 974 994  
Cooling Degree Days 0 0  
Month to date cooling degree days 0 0  
Year to date cooling degree days 34 61  
Moisture  
Dew Point 27 °F    
Average Humidity 84    
Maximum Humidity 96    
Minimum Humidity 56    
Precipitation  
Precipitation T in 0.03 in 0.64 in (1971)
Month to date precipitation 0.55 1.10  
Year to date precipitation 7.76 8.67  
Snow  
Snow T in 0.10 in 4.70 in (1996)
Month to date snowfall T 1.8  
Since 1 July snowfall T 1.8  
Since 1 September snowfall T 1.8  
Snow Depth 0.00 in    
Sea Level Pressure  
Sea Level Pressure 30.06 in    
Wind  
Wind Speed 2 mph (South)    
Max Wind Speed 5 mph    
Max Gust Speed -    
Visibility 10 miles    
Events Snow    
T = Trace of Precipitation, MM = Missing Value Source: NWS Daily Summary

Daily Weather History Graph

Daily Weather History Graph

Search for Another Location

Airport or City:

Trip Planner

Search our weather history database for the weather conditions in past years. The results will help you decide how hot, cold, wet, or windy it might be!

Date:

Astronomy

Sep. 30, 2012 Rise Set
Actual Time 8:00 AM AKDT 7:20 PM AKDT
Civil Twilight 7:11 AM AKDT 8:09 PM AKDT
Nautical Twilight 6:13 AM AKDT 9:06 PM AKDT
Astronomical Twilight 5:10 AM AKDT 10:09 PM AKDT
Moon 6:46 PM AKDT (9/30) 9:16 AM AKDT (9/30)
Length of Visible Light 12h 57m
Length of Day
11h 20m
Full, 100% of the Moon is Illuminated
Sep 30
Full
Oct 7
Last Quarter
Oct 15
New
Oct 21
First Quarter
Oct 29
Full

Hourly Weather History & Observations

Time (AKDT) Temp. Windchill Dew Point Humidity Pressure Visibility Wind Dir Wind Speed Gust Speed Precip Events Conditions
12:53 AM 30.9 °F - 28.9 °F 92% 29.94 in 10.0 mi Calm Calm - N/A   Mostly Cloudy
1:53 AM 30.9 °F 26.2 °F 28.9 °F 92% 29.96 in 10.0 mi SW 4.6 mph - N/A   Overcast
2:53 AM 30.9 °F 26.2 °F 28.9 °F 92% 29.97 in 10.0 mi Variable 4.6 mph - N/A   Overcast
3:45 AM 30.2 °F - 28.4 °F 93% 29.96 in 10.0 mi Calm Calm - N/A   Mostly Cloudy
3:53 AM 30.0 °F 25.2 °F 28.9 °F 96% 29.99 in 10.0 mi WSW 4.6 mph - N/A   Mostly Cloudy
4:53 AM 30.9 °F 27.5 °F 28.9 °F 92% 30.01 in 10.0 mi SSW 3.5 mph - N/A   Mostly Cloudy
5:53 AM 30.9 °F 27.5 °F 28.9 °F 92% 30.02 in 8.0 mi South 3.5 mph - 0.00 in Snow Light Snow
6:53 AM 30.0 °F - 28.0 °F 92% 30.04 in 10.0 mi Calm Calm - 0.00 in   Mostly Cloudy
7:53 AM 30.0 °F 26.5 °F 28.9 °F 96% 30.06 in 10.0 mi South 3.5 mph - N/A   Mostly Cloudy
8:07 AM 30.2 °F 25.4 °F 28.4 °F 93% 30.03 in 10.0 mi South 4.6 mph - 0.00 in   Overcast
8:53 AM 30.0 °F 26.5 °F 28.9 °F 96% 30.07 in 10.0 mi South 3.5 mph - 0.00 in   Mostly Cloudy
9:53 AM 30.0 °F - 28.0 °F 92% 30.09 in 10.0 mi Calm Calm - N/A   Mostly Cloudy
10:53 AM 32.0 °F - 28.9 °F 88% 30.10 in 10.0 mi Calm Calm - N/A   Overcast
11:47 AM 33.8 °F - 28.4 °F 81% 30.08 in 10.0 mi Calm Calm - N/A   Overcast
11:53 AM 33.1 °F - 28.9 °F 85% 30.11 in 10.0 mi Calm Calm - N/A   Overcast
12:53 PM 34.0 °F - 28.0 °F 79% 30.11 in 10.0 mi Calm Calm - N/A   Overcast
1:53 PM 35.1 °F 32.2 °F 28.0 °F 76% 30.11 in 10.0 mi Variable 3.5 mph - N/A   Overcast
2:53 PM 36.0 °F - 26.1 °F 67% 30.12 in 10.0 mi Calm Calm - 0.00 in   Overcast
3:53 PM 36.0 °F 33.3 °F 26.1 °F 67% 30.11 in 10.0 mi NE 3.5 mph - N/A   Overcast
4:53 PM 36.0 °F 32.1 °F 26.1 °F 67% 30.11 in 10.0 mi ENE 4.6 mph - N/A   Mostly Cloudy
5:53 PM 36.0 °F - 26.1 °F 67% 30.10 in 10.0 mi Calm Calm - N/A   Mostly Cloudy
6:34 PM 35.6 °F - 26.6 °F 70% 30.07 in 10.0 mi Calm Calm - N/A   Mostly Cloudy
6:53 PM 34.0 °F 29.8 °F 26.1 °F 73% 30.10 in 10.0 mi SSE 4.6 mph - N/A   Mostly Cloudy
7:53 PM 32.0 °F - 26.1 °F 79% 30.10 in 10.0 mi Calm Calm - N/A   Mostly Cloudy
8:53 PM 30.0 °F - 26.1 °F 85% 30.10 in 10.0 mi Calm Calm - N/A   Mostly Cloudy
9:53 PM 28.9 °F - 25.0 °F 85% 30.10 in 10.0 mi Calm Calm - N/A   Mostly Cloudy
10:53 PM 28.9 °F - 25.0 °F 85% 30.10 in 10.0 mi Calm Calm - N/A   Mostly Cloudy
11:53 PM 28.0 °F - 25.0 °F 88% 30.11 in 10.0 mi Calm Calm - N/A   Mostly Cloudy